Overview Statistics Trail Chart Weather Telemetry Raw packets
 

This is the latest recevied weather packets stored in our database for station/object W8RSN-13. If no packets are shown the sender has not sent any weather packets the latest 10 day(s).

<< 68 69 70 71 72 73 74 >>
Time Temp. Humidity Pressure Rain* Wind** Luminosity Snow
1788200973 27.22° C 54% 1016.1 hPa - - - -
1788200672 27.22° C 54% 1015.9 hPa - - - -
1788200371 27.78° C 54% 1016 hPa - - - -
1788200070 27.78° C 54% 1016 hPa - - - -
1788199769 27.78° C 55% 1016 hPa - - - -
1788199468 27.22° C 57% 1016.1 hPa - - - -
1788199167 27.22° C 57% 1016.2 hPa - - - -
1788198866 26.67° C 59% 1016.2 hPa - - - -
1788198565 26.11° C 60% 1016.1 hPa - - - -
1788198264 26.67° C 59% 1016.1 hPa - - - -
1788197964 26.67° C 60% 1016.2 hPa - - - -
1788197663 26.11° C 60% 1016.2 hPa - - - -
1788197362 26.11° C 61% 1016 hPa - - - -
1788197061 26.11° C 62% 1015.9 hPa - - - -
1788196760 26.11° C 61% 1016 hPa - - - -
1788196459 25.56° C 63% 1016.3 hPa - - - -
1788196158 25.56° C 63% 1015.9 hPa - - - -
1788195858 25.56° C 62% 1015.9 hPa - - - -
1788195557 25.56° C 61% 1015.9 hPa - - - -
1788195256 25° C 63% 1015.8 hPa - - - -
1788194975 24.44° C 65% 1015.8 hPa - - - -
1788194674 23.89° C 66% 1015.8 hPa - - - -
1788194373 23.89° C 66% 1015.8 hPa - - - -
1788194072 23.89° C 66% 1015.8 hPa - - - -
1788193771 23.89° C 67% 1015.8 hPa - - - -

* Rain since midnight (hover to see other rain measurements)
** Current wind speed in m/s (hover to see current wind gust speed)